Zurück zum Katalog

VNREDSAT 1

AktivWissenschaftSSO
NORAD 39160·PAYLOAD·🇻🇳 Vietnam

Gestartet May 7, 2013 von Guiana Space Centre

Loading…

Nächste Überflüge (nächste 24 Stunden)

TLE

AktuellSource: Space-Track

Epoche: Sep 14, 2026, 21:58 UTC

1 39160U 13021B   26257.91555568  .00000183  00000-0  42745-4 0  9990
2 39160  97.8993 307.8388 0001254  82.5181 277.6165 14.64743798713424

Verfolge VNREDSAT 1 in Echtzeit mit AllMySat

Download on the App Store